• In Uzbekistan
  • List of Countries
  • For 7 days
  • Water Temperature
  • Satellite Maps
  • Weather Map
  • Weather Widgets
  • user-avatar
    Login

    Hourly Weather Korçe

    Today, 27 February, Monday

    Time Temperature Precipitation Wind Pressure Humidity
    00:00 +5°C° 0 mm 1 mps 667 mmHg 92%
    01:00 +4°C° 0 mm 1 mps 667 mmHg 93%
    02:00 +4°C° 0 mm 1 mps 666 mmHg 92%
    03:00 +4°C° 0 mm 1 mps 666 mmHg 92%
    04:00 +3°C° 0 mm 1 mps 666 mmHg 92%
    05:00 +4°C° 0 mm 1 mps 666 mmHg 91%
    06:00 +4°C° 0 mm 1 mps 666 mmHg 91%
    07:00 +4°C° 0 mm 1 mps 666 mmHg 90%
    08:00 +6°C° 0 mm 1 mps 667 mmHg 83%
    09:00 +9°C° 0 mm 1 mps 667 mmHg 76%
    10:00 +10°C° 0 mm 0 mps 668 mmHg 69%
    11:00 +12°C° 0 mm 1 mps 668 mmHg 66%
    12:00 +13°C° 0 mm 1 mps 668 mmHg 63%
    13:00 +14°C° 0 mm 1 mps 668 mmHg 60%
    14:00 +13°C° 0 mm 1 mps 668 mmHg 63%
    15:00 +12°C° 0 mm 1 mps 667 mmHg 66%
    16:00 +12°C° 0 mm 1 mps 667 mmHg 69%
    17:00 +10°C° 0 mm 1 mps 666 mmHg 76%
    18:00 +8°C° 0 mm 1 mps 666 mmHg 83%
    19:00 +6°C° 0 mm 1 mps 666 mmHg 90%
    20:00 +4°C° 0 mm 0 mps 666 mmHg 91%
    21:00 +4°C° 0 mm 0 mps 666 mmHg 91%
    22:00 +3°C° 0 mm 0 mps 665 mmHg 92%
    23:00 +3°C° 0 mm 0 mps 665 mmHg 91%

    Tomorrow, 28 February, Tuesday

    Time Temperature Precipitation Wind Pressure Humidity
    00:00 +3°C° 0 mm 0 mps 665 mmHg 91%
    01:00 +2°C° 0 mm 0 mps 665 mmHg 91%
    02:00 +2°C° 0 mm 0 mps 665 mmHg 91%
    03:00 +3°C° 0 mm 1 mps 664 mmHg 90%
    04:00 +3°C° 0 mm 1 mps 664 mmHg 90%
    05:00 +2°C° 0 mm 0 mps 664 mmHg 88%
    06:00 +3°C° 0 mm 0 mps 665 mmHg 87%
    07:00 +3°C° 0 mm 0 mps 665 mmHg 85%
    08:00 +6°C° 0 mm 1 mps 666 mmHg 78%
    09:00 +9°C° 0 mm 1 mps 666 mmHg 71%
    10:00 +11°C° 0 mm 1 mps 667 mmHg 63%
    11:00 +12°C° 0 mm 1 mps 667 mmHg 62%
    12:00 +12°C° 0 mm 2 mps 667 mmHg 61%
    13:00 +13°C° 0 mm 2 mps 667 mmHg 60%
    14:00 +12°C° 0 mm 2 mps 666 mmHg 63%
    15:00 +12°C° 0 mm 2 mps 666 mmHg 67%
    16:00 +10°C° 0 mm 2 mps 665 mmHg 70%
    17:00 +8°C° 0 mm 2 mps 665 mmHg 77%
    18:00 +6°C° 0 mm 2 mps 665 mmHg 84%
    19:00 +5°C° 0 mm 2 mps 665 mmHg 91%
    20:00 +4°C° 0 mm 2 mps 665 mmHg 92%
    21:00 +4°C° 0 mm 2 mps 665 mmHg 92%
    22:00 +4°C° 0 mm 2 mps 665 mmHg 93%
    23:00 +3°C° 0 mm 2 mps 664 mmHg 94%

    Day after tomorrow, 1 March, Wednesday

    Time Temperature Precipitation Wind Pressure Humidity
    00:00 +3°C° 0 mm 2 mps 664 mmHg 94%
    01:00 +3°C° 0 mm 2 mps 664 mmHg 94%
    02:00 +3°C° 0 mm 2 mps 664 mmHg 94%
    03:00 +3°C° 0 mm 2 mps 664 mmHg 95%
    04:00 +3°C° 0 mm 2 mps 663 mmHg 95%
    05:00 +3°C° 0 mm 2 mps 663 mmHg 95%
    06:00 +3°C° 0 mm 2 mps 663 mmHg 95%
    07:00 +3°C° 0 mm 3 mps 664 mmHg 94%
    08:00 +4°C° 0.1 mm 3 mps 664 mmHg 90%
    09:00 +5°C° 0.1 mm 3 mps 664 mmHg 86%
    10:00 +7°C° 0.1 mm 3 mps 664 mmHg 82%
    11:00 +7°C° 0.2 mm 3 mps 664 mmHg 81%
    12:00 +7°C° 0.2 mm 4 mps 663 mmHg 80%
    13:00 +7°C° 0.2 mm 4 mps 663 mmHg 79%
    14:00 +7°C° 0.5 mm 4 mps 662 mmHg 81%
    15:00 +7°C° 0.5 mm 3 mps 662 mmHg 83%
    16:00 +7°C° 0.5 mm 3 mps 662 mmHg 86%
    17:00 +5°C° 2.8 mm 3 mps 662 mmHg 89%
    18:00 +4°C° 2.8 mm 3 mps 662 mmHg 92%
    19:00 +4°C° 2.8 mm 2 mps 662 mmHg 95%
    20:00 +3°C° 0.5 mm 2 mps 662 mmHg 95%
    21:00 +3°C° 0.5 mm 2 mps 662 mmHg 94%
    22:00 +2°C° 0.5 mm 2 mps 662 mmHg 94%
    23:00 +2°C° 0 mm 2 mps 662 mmHg 94%

    2 March, Thursday

    Time Temperature Precipitation Wind Pressure Humidity
    00:00 +1°C° 0 mm 2 mps 663 mmHg 94%
    01:00 +1°C° 0 mm 2 mps 663 mmHg 94%
    02:00 -1°C° 0 mm 2 mps 663 mmHg 94%
    03:00 -1°C° 0 mm 2 mps 663 mmHg 94%
    04:00 -1°C° 0 mm 2 mps 663 mmHg 93%
    05:00 -1°C° 0 mm 2 mps 664 mmHg 93%
    06:00 -1°C° 0 mm 2 mps 664 mmHg 92%
    07:00 +1°C° 0 mm 1 mps 665 mmHg 92%
    08:00 +3°C° 0 mm 1 mps 666 mmHg 83%
    09:00 +4°C° 0 mm 2 mps 666 mmHg 74%
    10:00 +6°C° 0 mm 2 mps 667 mmHg 65%
    11:00 +6°C° 0 mm 2 mps 667 mmHg 60%
    12:00 +7°C° 0 mm 2 mps 667 mmHg 55%
    13:00 +8°C° 0 mm 2 mps 667 mmHg 50%
    14:00 +8°C° 0 mm 2 mps 667 mmHg 53%
    15:00 +8°C° 0 mm 2 mps 667 mmHg 56%
    16:00 +7°C° 0 mm 2 mps 667 mmHg 58%
    17:00 +6°C° 0 mm 2 mps 667 mmHg 66%
    18:00 +4°C° 0 mm 2 mps 667 mmHg 73%
    19:00 +3°C° 0 mm 1 mps 667 mmHg 81%
    20:00 +2°C° 0 mm 1 mps 667 mmHg 80%
    21:00 +2°C° 0 mm 1 mps 667 mmHg 79%
    22:00 +2°C° 0 mm 1 mps 667 mmHg 79%
    23:00 +2°C° 0 mm 1 mps 667 mmHg 77%

    3 March, Friday

    Time Temperature Precipitation Wind Pressure Humidity
    00:00 +2°C° 0 mm 1 mps 667 mmHg 74%
    01:00 +2°C° 0 mm 1 mps 667 mmHg 72%
    02:00 +1°C° 0 mm 1 mps 667 mmHg 70%
    03:00 +1°C° 0 mm 1 mps 666 mmHg 67%
    04:00 +1°C° 0 mm 1 mps 666 mmHg 65%
    05:00 +2°C° 0 mm 1 mps 667 mmHg 63%
    06:00 +2°C° 0 mm 1 mps 667 mmHg 61%
    07:00 +3°C° 0 mm 1 mps 667 mmHg 60%
    08:00 +6°C° 0 mm 1 mps 668 mmHg 54%
    09:00 +8°C° 0 mm 1 mps 669 mmHg 48%
    10:00 +11°C° 0 mm 1 mps 670 mmHg 42%
    11:00 +11°C° 0 mm 1 mps 670 mmHg 42%
    12:00 +12°C° 0 mm 1 mps 670 mmHg 42%
    13:00 +13°C° 0 mm 1 mps 670 mmHg 41%
    14:00 +12°C° 0 mm 1 mps 669 mmHg 47%
    15:00 +12°C° 0 mm 1 mps 669 mmHg 52%
    16:00 +11°C° 0 mm 1 mps 669 mmHg 57%
    17:00 +9°C° 0 mm 1 mps 669 mmHg 66%
    18:00 +6°C° 0 mm 1 mps 668 mmHg 76%
    19:00 +4°C° 0 mm 1 mps 668 mmHg 85%
    20:00 +4°C° 0 mm 1 mps 668 mmHg 85%
    21:00 +3°C° 0 mm 1 mps 668 mmHg 86%
    22:00 +3°C° 0 mm 1 mps 668 mmHg 86%
    23:00 +3°C° 0 mm 1 mps 668 mmHg 87%

    4 March, Saturday

    Time Temperature Precipitation Wind Pressure Humidity
    00:00 +3°C° 0 mm 1 mps 668 mmHg 87%
    01:00 +2°C° 0 mm 1 mps 667 mmHg 88%
    02:00 +2°C° 0 mm 1 mps 667 mmHg 88%
    03:00 +2°C° 0 mm 1 mps 667 mmHg 88%
    04:00 +2°C° 0 mm 1 mps 667 mmHg 88%
    05:00 +2°C° 0 mm 1 mps 667 mmHg 86%
    06:00 +3°C° 0 mm 1 mps 668 mmHg 83%
    07:00 +3°C° 0 mm 1 mps 668 mmHg 80%
    08:00 +6°C° 0 mm 1 mps 668 mmHg 71%
    09:00 +8°C° 0 mm 1 mps 669 mmHg 63%
    10:00 +10°C° 0 mm 1 mps 670 mmHg 54%
    11:00 +11°C° 0 mm 1 mps 670 mmHg 52%
    12:00 +12°C° 0 mm 1 mps 670 mmHg 49%
    13:00 +13°C° 0 mm 2 mps 669 mmHg 47%
    14:00 +12°C° 0 mm 1 mps 669 mmHg 51%
    15:00 +12°C° 0 mm 1 mps 669 mmHg 55%
    16:00 +11°C° 0 mm 1 mps 669 mmHg 59%
    17:00 +9°C° 0 mm 1 mps 668 mmHg 68%
    18:00 +7°C° 0 mm 1 mps 668 mmHg 77%
    19:00 +4°C° 0 mm 1 mps 667 mmHg 86%
    20:00 +4°C° 0 mm 1 mps 667 mmHg 87%
    21:00 +4°C° 0 mm 1 mps 667 mmHg 88%
    22:00 +4°C° 0 mm 1 mps 667 mmHg 89%
    23:00 +3°C° 0 mm 1 mps 667 mmHg 89%
    Show more